When you browse on this site, cookies collect data to enhance your experience and personalize the content and advertising you see.
Visit our Privacy Policy to learn more. By continuing to use the site, you agree to this use of cookies and data.
  • In Slovakia
  • List of Countries
  • For 7 days
  • Water Temperature
  • Weather Map
  • Weather Widgets
  • user-avatar
    Login

    Hourly Weather Saurimo

    Today, 19 September, Thursday

    Time Temperature Precipitation Wind Pressure Humidity
    00:00 +23°C° 0 mm 1 mps 669 mmHg 70%
    01:00 +23°C° 0 mm 2 mps 669 mmHg 74%
    02:00 +22°C° 0 mm 1 mps 669 mmHg 75%
    03:00 +22°C° 0 mm 1 mps 669 mmHg 77%
    04:00 +20°C° 0 mm 0 mps 669 mmHg 78%
    05:00 +21°C° 0 mm 0 mps 670 mmHg 74%
    06:00 +24°C° 0 mm 1 mps 671 mmHg 70%
    07:00 +25°C° 0 mm 1 mps 672 mmHg 66%
    08:00 +29°C° 0 mm 1 mps 672 mmHg 54%
    09:00 +31°C° 0 mm 0 mps 673 mmHg 42%
    10:00 +35°C° 0 mm 0 mps 674 mmHg 31%
    11:00 +36°C° 0 mm 1 mps 673 mmHg 33%
    12:00 +35°C° 0 mm 2 mps 671 mmHg 36%
    13:00 +33°C° 0 mm 3 mps 670 mmHg 38%
    14:00 +32°C° 0.2 mm 2 mps 670 mmHg 38%
    15:00 +32°C° 0.2 mm 2 mps 670 mmHg 38%
    16:00 +32°C° 0.2 mm 1 mps 670 mmHg 38%
    17:00 +30°C° 0.1 mm 1 mps 669 mmHg 45%
    18:00 +27°C° 0.1 mm 2 mps 669 mmHg 52%
    19:00 +25°C° 0.1 mm 2 mps 669 mmHg 59%
    20:00 +25°C° 0 mm 2 mps 669 mmHg 61%
    21:00 +24°C° 0 mm 1 mps 669 mmHg 62%
    22:00 +23°C° 0 mm 1 mps 670 mmHg 64%
    23:00 +23°C° 0 mm 1 mps 669 mmHg 65%

    Tomorrow, 20 September, Friday

    Time Temperature Precipitation Wind Pressure Humidity
    00:00 +22°C° 0 mm 1 mps 669 mmHg 66%
    01:00 +22°C° 0 mm 1 mps 668 mmHg 67%
    02:00 +21°C° 0 mm 1 mps 668 mmHg 70%
    03:00 +19°C° 0 mm 0 mps 668 mmHg 72%
    04:00 +19°C° 0 mm 0 mps 668 mmHg 75%
    05:00 +20°C° 0 mm 0 mps 669 mmHg 71%
    06:00 +23°C° 0 mm 1 mps 670 mmHg 66%
    07:00 +25°C° 0 mm 1 mps 671 mmHg 62%
    08:00 +28°C° 0 mm 1 mps 672 mmHg 54%
    09:00 +30°C° 0 mm 1 mps 672 mmHg 46%
    10:00 +33°C° 0 mm 1 mps 673 mmHg 38%
    11:00 +34°C° 0 mm 1 mps 672 mmHg 35%
    12:00 +35°C° 0 mm 1 mps 671 mmHg 33%
    13:00 +35°C° 0 mm 1 mps 670 mmHg 31%
    14:00 +35°C° 0 mm 1 mps 670 mmHg 30%
    15:00 +35°C° 0 mm 1 mps 670 mmHg 29%
    16:00 +34°C° 0 mm 1 mps 670 mmHg 28%
    17:00 +32°C° 0 mm 1 mps 669 mmHg 33%
    18:00 +30°C° 0 mm 1 mps 669 mmHg 39%
    19:00 +28°C° 0 mm 1 mps 669 mmHg 44%
    20:00 +27°C° 0 mm 1 mps 669 mmHg 46%
    21:00 +27°C° 0 mm 1 mps 669 mmHg 48%
    22:00 +26°C° 0 mm 2 mps 669 mmHg 49%
    23:00 +25°C° 0 mm 2 mps 669 mmHg 54%

    Day after tomorrow, 21 September, Saturday

    Time Temperature Precipitation Wind Pressure Humidity
    00:00 +24°C° 0 mm 2 mps 668 mmHg 59%
    01:00 +23°C° 0 mm 1 mps 668 mmHg 64%
    02:00 +21°C° 0 mm 2 mps 668 mmHg 67%
    03:00 +21°C° 0 mm 2 mps 668 mmHg 71%
    04:00 +20°C° 0 mm 2 mps 668 mmHg 75%
    05:00 +23°C° 0 mm 1 mps 669 mmHg 71%
    06:00 +24°C° 0 mm 1 mps 670 mmHg 66%
    07:00 +25°C° 0 mm 1 mps 671 mmHg 62%
    08:00 +28°C° 0 mm 1 mps 671 mmHg 53%
    09:00 +31°C° 0 mm 2 mps 671 mmHg 44%
    10:00 +35°C° 0 mm 2 mps 672 mmHg 36%
    11:00 +34°C° 0 mm 1 mps 671 mmHg 33%
    12:00 +35°C° 0 mm 1 mps 670 mmHg 30%
    13:00 +36°C° 0 mm 1 mps 670 mmHg 27%
    14:00 +35°C° 0 mm 1 mps 669 mmHg 28%
    15:00 +34°C° 0 mm 1 mps 669 mmHg 29%
    16:00 +33°C° 0 mm 1 mps 669 mmHg 31%
    17:00 +32°C° 0 mm 1 mps 669 mmHg 35%
    18:00 +30°C° 0 mm 1 mps 668 mmHg 38%
    19:00 +28°C° 0 mm 1 mps 668 mmHg 42%
    20:00 +27°C° 0 mm 1 mps 669 mmHg 46%
    21:00 +26°C° 0 mm 1 mps 669 mmHg 49%
    22:00 +25°C° 0 mm 1 mps 669 mmHg 52%
    23:00 +25°C° 0 mm 1 mps 669 mmHg 55%

    22 September, Sunday

    Time Temperature Precipitation Wind Pressure Humidity
    00:00 +24°C° 0 mm 2 mps 668 mmHg 58%
    01:00 +23°C° 0 mm 2 mps 668 mmHg 61%
    02:00 +23°C° 0 mm 2 mps 668 mmHg 64%
    03:00 +23°C° 0 mm 2 mps 668 mmHg 67%
    04:00 +21°C° 0 mm 2 mps 669 mmHg 70%
    05:00 +23°C° 0 mm 2 mps 669 mmHg 69%
    06:00 +24°C° 0 mm 2 mps 670 mmHg 68%
    07:00 +25°C° 0 mm 2 mps 671 mmHg 67%
    08:00 +28°C° 0 mm 2 mps 671 mmHg 56%
    09:00 +30°C° 0 mm 2 mps 672 mmHg 46%
    10:00 +34°C° 0 mm 2 mps 672 mmHg 36%
    11:00 +35°C° 0 mm 2 mps 671 mmHg 33%
    12:00 +36°C° 0 mm 2 mps 671 mmHg 30%
    13:00 +36°C° 0 mm 1 mps 670 mmHg 27%
    14:00 +36°C° 0 mm 2 mps 670 mmHg 29%
    15:00 +35°C° 0 mm 2 mps 669 mmHg 32%
    16:00 +34°C° 0 mm 3 mps 669 mmHg 34%
    17:00 +31°C° 0 mm 2 mps 669 mmHg 39%
    18:00 +29°C° 0 mm 2 mps 669 mmHg 45%
    19:00 +27°C° 0 mm 1 mps 669 mmHg 50%
    20:00 +26°C° 0.1 mm 1 mps 670 mmHg 54%
    21:00 +25°C° 0.1 mm 1 mps 670 mmHg 58%
    22:00 +25°C° 0.1 mm 1 mps 670 mmHg 61%
    23:00 +24°C° 0.1 mm 1 mps 669 mmHg 65%

    23 September, Monday

    Time Temperature Precipitation Wind Pressure Humidity
    00:00 +23°C° 0.1 mm 1 mps 669 mmHg 69%
    01:00 +22°C° 0.1 mm 1 mps 669 mmHg 73%
    02:00 +22°C° 0 mm 1 mps 669 mmHg 75%
    03:00 +22°C° 0 mm 1 mps 669 mmHg 76%
    04:00 +22°C° 0 mm 1 mps 669 mmHg 78%
    05:00 +21°C° 0 mm 2 mps 669 mmHg 74%
    06:00 +23°C° 0 mm 2 mps 670 mmHg 70%
    07:00 +24°C° 0 mm 2 mps 670 mmHg 66%
    08:00 +27°C° 0 mm 2 mps 671 mmHg 56%
    09:00 +30°C° 0 mm 2 mps 672 mmHg 46%
    10:00 +34°C° 0 mm 2 mps 672 mmHg 36%
    11:00 +36°C° 0 mm 2 mps 672 mmHg 32%
    12:00 +37°C° 0 mm 1 mps 671 mmHg 28%
    13:00 +39°C° 0 mm 1 mps 671 mmHg 24%
    14:00 +37°C° 0 mm 1 mps 670 mmHg 26%
    15:00 +37°C° 0 mm 2 mps 670 mmHg 27%
    16:00 +35°C° 0 mm 2 mps 670 mmHg 29%
    17:00 +31°C° 0.4 mm 2 mps 670 mmHg 39%
    18:00 +28°C° 0.4 mm 2 mps 670 mmHg 49%
    19:00 +26°C° 0.4 mm 2 mps 670 mmHg 58%
    20:00 +25°C° 0.4 mm 2 mps 670 mmHg 63%
    21:00 +24°C° 0.4 mm 2 mps 670 mmHg 68%
    22:00 +24°C° 0.4 mm 2 mps 670 mmHg 72%
    23:00 +23°C° 0 mm 2 mps 670 mmHg 72%

    24 September, Tuesday

    Time Temperature Precipitation Wind Pressure Humidity
    00:00 +23°C° 0 mm 2 mps 669 mmHg 72%
    01:00 +23°C° 0 mm 2 mps 669 mmHg 71%
    02:00 +23°C° 0 mm 1 mps 669 mmHg 73%
    03:00 +22°C° 0 mm 1 mps 669 mmHg 75%
    04:00 +22°C° 0 mm 1 mps 669 mmHg 76%
    05:00 +22°C° 0 mm 1 mps 670 mmHg 75%
    06:00 +23°C° 0 mm 1 mps 670 mmHg 73%
    07:00 +24°C° 0 mm 1 mps 671 mmHg 71%
    08:00 +27°C° 0 mm 2 mps 671 mmHg 61%
    09:00 +29°C° 0 mm 2 mps 672 mmHg 50%
    10:00 +32°C° 0 mm 2 mps 672 mmHg 40%
    11:00 +35°C° 0 mm 2 mps 672 mmHg 35%
    12:00 +37°C° 0 mm 1 mps 672 mmHg 30%
    13:00 +37°C° 0 mm 0 mps 671 mmHg 25%
    14:00 +39°C° 0 mm 1 mps 671 mmHg 26%
    15:00 +36°C° 0 mm 1 mps 670 mmHg 28%
    16:00 +35°C° 0 mm 1 mps 669 mmHg 29%
    17:00 +32°C° 0.2 mm 1 mps 669 mmHg 39%
    18:00 +29°C° 0.2 mm 2 mps 669 mmHg 50%
    19:00 +26°C° 0.2 mm 3 mps 669 mmHg 60%
    20:00 +25°C° 0 mm 2 mps 669 mmHg 64%
    21:00 +24°C° 0 mm 2 mps 669 mmHg 67%
    22:00 +23°C° 0 mm 1 mps 669 mmHg 71%
    23:00 +23°C° 0 mm 1 mps 669 mmHg 73%
    Show more